Home > Time Zones > World Clock > Weather > U.S.A. > Hilo > Past weeks

Flag for U.S.A. Weather past 2 weeks in Hilo, Hawaii, U.S.A.

Now
81 °F

Sunny.


Feels Like: 83 °F
Forecast: 65 / 78 °F
Wind: 10 mph from Northeast

Location: Hilo International Airport

Current Time: Dec 22, 2014 at 12:27:47 PM

Latest Report: Dec 22, 2014 at 11:53 AM


Visibility: 10 mi

Pressure: 29.98 "Hg

Humidity: 62%

Dew point: 67 °F

Location of HiloLocation

Historic Weather in Hilo — Graph

°F

Hilo temperature yesterday

Maximum temperature yesterday: 82 °F (at 11:36 AM)
Minimum temperature yesterday: 66 °F (at 6:53 AM)
Average temperature yesterday: 73 °F

Past Weeks' High & Low Weather Summary

 TemperatureHumidityPressure
High82 °F (Dec 21, 11:36 AM)100% (Dec 12, 4:26 AM)30.19 "Hg (Dec 12, 4:26 AM)
Low61 °F (Dec 11, 4:41 AM)52% (Dec 7, 1:53 PM)29.94 "Hg (Dec 21, 2:53 PM)
Average72 °F79%30.08 "Hg
* Reported Dec 7 10:53 AM — Dec 22 10:53 AM, Hilo, Weather by CustomWeather, © 2014

Note: Actual official high and low records may vary slightly from our data, if they occured in-between our weather recording intervals... More about our weather records

Advertising

Hilo weather history for previous 24 hours

 ConditionsComfort  
Time TempWeatherWind HumidityBarometerVisibility
10:53 AM
Dec 22
82 °FSunny.9 mph53%29.98 "Hg10 mi
9:53 AM80 °FSunny.7 mph52%29.99 "Hg10 mi
8:53 AM76 °FSunny.6 mph54%30.00 "Hg10 mi
7:53 AM69 °FPassing clouds.7 mph66%29.99 "Hg10 mi
6:53 AM66 °FPassing clouds.7 mph75%29.99 "Hg10 mi
5:53 AM67 °FPassing clouds.7 mph73%29.98 "Hg10 mi
4:53 AM66 °FMostly cloudy.5 mph73%29.97 "Hg10 mi
3:53 AM66 °FClear.8 mph73%29.95 "Hg10 mi
2:53 AM66 °FClear.7 mph78%29.95 "Hg10 mi
1:53 AM67 °FPassing clouds.7 mph81%29.98 "Hg10 mi
12:53 AM69 °FClear.6 mph76%29.99 "Hg10 mi
11:53 PM
Dec 21
69 °FPartly cloudy.6 mph81%30.01 "Hg10 mi
10:53 PM69 °FClear.7 mph81%30.01 "Hg10 mi
9:53 PM69 °FClear.6 mph87%30.02 "Hg10 mi
8:53 PM70 °FClear.6 mph87%30.00 "Hg10 mi
7:53 PM71 °FPassing clouds.5 mph90%29.99 "Hg10 mi
6:53 PM72 °FClear.5 mph87%29.98 "Hg10 mi
5:53 PM74 °FPassing clouds.3 mph82%29.97 "Hg10 mi
4:53 PM76 °FSunny.8 mph77%29.95 "Hg10 mi
3:53 PM79 °FPartly sunny.6 mph69%29.94 "Hg10 mi
2:53 PM81 °FPassing clouds.8 mph60%29.94 "Hg10 mi
1:53 PM82 °FSunny.8 mph56%29.97 "Hg10 mi
12:53 PM82 °FPassing clouds.9 mph60%29.99 "Hg10 mi
Weather by CustomWeather, © 2014

See weather overviewHow to use our weather pages